CZ-6A DEB

Satellite information

Favourite Embed

Satellite Type and Status

DEBRISIN ORBIT

Key statistics

Satellite CZ-6A DEB at a glance.

Uptime

1030

Days in orbit

Revolutions

≈ 14.6

Per day

Orbit

SSO

Sun Synchronous Orbit

Inclination

99.1

Latest

Satellite identification and parameters

Extended collection of information and parameters for CZ-6A DEB.

Object identification

Identified? True

Debris? True

Object name: CZ-6A DEB

International designator: 2022-151RZ

Object number (NORAD): 54936

Object ID (CCSDS): 54936

Country: PEOPLES REPUBLIC OF CHINA (PRC)

Current information (Y/N): Y

RCS size: SMALL

Orbital parameters

Period: 98.754 minutes

Inclination: 99.1034 deg

SMA: 7077.239 km

Apoapsis: 773.584 km

Periapsis: 624.623 km

RAAN: 347.4122 deg

Eccentricy: 0.0105239

Argument of periapsis: 149.0452 deg

Mean anomaly: 211.7005 deg

Mean motion: 14.58166139 rev/day

Mean motion (dot): 0.0001852 rev/day2

B* drag term: 0.0037233946 1/REarth

Two-line elements (TLE)

Creation date: Sept. 6, 2025, 2:09 a.m.

Reference frame: TEME

Reference center: EARTH

Epoch: Sept. 5, 2025, 7:21 p.m. UTC

TLE line 0: 0 CZ-6A DEB

TLE line 1: 1 54936U 22151RZ 25248.80649743 .00018520 00000-0 37234-2 0 9997

TLE line 2: 2 54936 99.1034 347.4122 0105239 149.0452 211.7005 14.58166139147959

Live tracking on map

Real-time ground track for satellite CZ-6A DEB.

In-orbit conjunctions

There are no conjunctions computed for CZ-6A DEB, at the moment. Check back to stay up to date, as we update our databases every day.

Go to all conjunctions

Associated space launch

Chinese satellite reported for atmospheric/ocean/environmental/spatial parameter research purposes, details TBD.

CZ-6A DEB was lifted into orbit during the mission ‘Long March 6A | Yunhai 3’, on board a Long March 6A space rocket.

The launch took place on Nov. 11, 2022, 10:52 p.m. from Launch Complex 9A.

For more information about the launch, click the button.

Launch to space Long March 6A | Yunhai 3
Long March 6A | Yunhai 3

Agency: N/A

Status: Launch Successful

Launch date: Nov. 11, 2022, 10:52 p.m. UTC

Rocket: Long March 6A

Launch pad: Launch Complex 9A

Location: Taiyuan Satellite Launch Center, People's Republic of China

...

Latest news about this satellite

There are no fresh news available about this satellite. Check back as we update our databases every day.


Newsletter sign-up

Weekly statistics, charts and insights to help you stay on top of the space industry.